When you browse on this site, cookies collect data to enhance your experience and personalize the content and advertising you see.
Visit our Privacy Policy to learn more. By continuing to use the site, you agree to this use of cookies and data.
  • In Hungary
  • List of Countries
  • For 7 days
  • Water Temperature
  • Weather Map
  • News
  • Weather Widgets
  • user-avatar
    Login

    Hourly Weather Czernica

    Today, 22 September, Sunday

    Time Temperature Precipitation Wind Pressure Humidity
    00:00 +9°C° 0 mm 2 mps 746 mmHg 80%
    01:00 +9°C° 0 mm 2 mps 746 mmHg 81%
    02:00 +9°C° 0 mm 2 mps 746 mmHg 82%
    03:00 +8°C° 0 mm 2 mps 746 mmHg 82%
    04:00 +8°C° 0 mm 2 mps 745 mmHg 83%
    05:00 +9°C° 0 mm 2 mps 745 mmHg 79%
    06:00 +10°C° 0 mm 2 mps 745 mmHg 75%
    07:00 +12°C° 0 mm 2 mps 745 mmHg 71%
    08:00 +14°C° 0 mm 2 mps 745 mmHg 64%
    09:00 +16°C° 0 mm 2 mps 745 mmHg 57%
    10:00 +18°C° 0 mm 2 mps 745 mmHg 50%
    11:00 +19°C° 0 mm 2 mps 745 mmHg 48%
    12:00 +21°C° 0 mm 1 mps 744 mmHg 46%
    13:00 +22°C° 0 mm 1 mps 744 mmHg 44%
    14:00 +22°C° 0 mm 1 mps 743 mmHg 46%
    15:00 +22°C° 0 mm 1 mps 743 mmHg 48%
    16:00 +21°C° 0 mm 1 mps 743 mmHg 50%
    17:00 +19°C° 0 mm 1 mps 742 mmHg 56%
    18:00 +16°C° 0 mm 1 mps 742 mmHg 62%
    19:00 +14°C° 0 mm 1 mps 742 mmHg 68%
    20:00 +14°C° 0 mm 1 mps 742 mmHg 70%
    21:00 +13°C° 0 mm 1 mps 742 mmHg 71%
    22:00 +12°C° 0 mm 1 mps 742 mmHg 72%
    23:00 +12°C° 0 mm 1 mps 742 mmHg 72%

    Tomorrow, 23 September, Monday

    Time Temperature Precipitation Wind Pressure Humidity
    00:00 +12°C° 0 mm 1 mps 742 mmHg 73%
    01:00 +11°C° 0 mm 1 mps 742 mmHg 73%
    02:00 +11°C° 0 mm 1 mps 742 mmHg 73%
    03:00 +10°C° 0 mm 1 mps 742 mmHg 74%
    04:00 +9°C° 0 mm 2 mps 742 mmHg 74%
    05:00 +9°C° 0 mm 2 mps 742 mmHg 71%
    06:00 +10°C° 0 mm 2 mps 742 mmHg 69%
    07:00 +10°C° 0 mm 2 mps 742 mmHg 67%
    08:00 +14°C° 0 mm 2 mps 742 mmHg 60%
    09:00 +16°C° 0 mm 3 mps 742 mmHg 54%
    10:00 +18°C° 0 mm 3 mps 742 mmHg 48%
    11:00 +19°C° 0 mm 3 mps 742 mmHg 45%
    12:00 +21°C° 0 mm 3 mps 742 mmHg 43%
    13:00 +22°C° 0 mm 4 mps 741 mmHg 40%
    14:00 +22°C° 0 mm 3 mps 741 mmHg 43%
    15:00 +21°C° 0 mm 3 mps 741 mmHg 46%
    16:00 +21°C° 0 mm 3 mps 741 mmHg 49%
    17:00 +19°C° 0 mm 2 mps 741 mmHg 55%
    18:00 +17°C° 0 mm 2 mps 741 mmHg 61%
    19:00 +15°C° 0 mm 2 mps 741 mmHg 67%
    20:00 +14°C° 0 mm 2 mps 741 mmHg 72%
    21:00 +13°C° 0 mm 2 mps 741 mmHg 78%
    22:00 +13°C° 0 mm 2 mps 742 mmHg 83%
    23:00 +12°C° 0 mm 2 mps 741 mmHg 86%

    Day after tomorrow, 24 September, Tuesday

    Time Temperature Precipitation Wind Pressure Humidity
    00:00 +12°C° 0 mm 2 mps 741 mmHg 90%
    01:00 +10°C° 0 mm 2 mps 741 mmHg 93%
    02:00 +10°C° 0 mm 2 mps 741 mmHg 94%
    03:00 +10°C° 0 mm 2 mps 741 mmHg 94%
    04:00 +10°C° 0 mm 1 mps 740 mmHg 94%
    05:00 +11°C° 0 mm 1 mps 740 mmHg 92%
    06:00 +12°C° 0 mm 1 mps 740 mmHg 89%
    07:00 +12°C° 0 mm 1 mps 740 mmHg 87%
    08:00 +14°C° 0 mm 2 mps 740 mmHg 78%
    09:00 +16°C° 0 mm 2 mps 741 mmHg 69%
    10:00 +18°C° 0 mm 2 mps 741 mmHg 60%
    11:00 +20°C° 0 mm 2 mps 740 mmHg 56%
    12:00 +21°C° 0 mm 3 mps 740 mmHg 52%
    13:00 +22°C° 0 mm 3 mps 739 mmHg 48%
    14:00 +22°C° 0 mm 3 mps 739 mmHg 50%
    15:00 +22°C° 0 mm 3 mps 739 mmHg 52%
    16:00 +21°C° 0 mm 2 mps 738 mmHg 54%
    17:00 +19°C° 0 mm 2 mps 738 mmHg 60%
    18:00 +17°C° 0 mm 2 mps 738 mmHg 67%
    19:00 +15°C° 0 mm 2 mps 738 mmHg 73%
    20:00 +15°C° 0 mm 2 mps 738 mmHg 75%
    21:00 +14°C° 0 mm 2 mps 738 mmHg 77%
    22:00 +14°C° 0 mm 2 mps 738 mmHg 79%
    23:00 +14°C° 0 mm 1 mps 737 mmHg 78%

    25 September, Wednesday

    Time Temperature Precipitation Wind Pressure Humidity
    00:00 +14°C° 0 mm 1 mps 737 mmHg 77%
    01:00 +14°C° 0 mm 1 mps 737 mmHg 76%
    02:00 +14°C° 0 mm 1 mps 737 mmHg 76%
    03:00 +14°C° 0 mm 1 mps 736 mmHg 76%
    04:00 +13°C° 0 mm 0 mps 736 mmHg 76%
    05:00 +14°C° 0 mm 1 mps 736 mmHg 76%
    06:00 +15°C° 0 mm 1 mps 736 mmHg 75%
    07:00 +15°C° 0 mm 1 mps 736 mmHg 75%
    08:00 +16°C° 0.1 mm 2 mps 736 mmHg 72%
    09:00 +17°C° 0.1 mm 2 mps 736 mmHg 70%
    10:00 +19°C° 0.1 mm 2 mps 736 mmHg 67%
    11:00 +19°C° 0.7 mm 3 mps 736 mmHg 67%
    12:00 +19°C° 0.7 mm 3 mps 736 mmHg 67%
    13:00 +19°C° 0.7 mm 4 mps 736 mmHg 67%
    14:00 +19°C° 0.3 mm 3 mps 735 mmHg 69%
    15:00 +19°C° 0.3 mm 3 mps 735 mmHg 71%
    16:00 +18°C° 0.3 mm 2 mps 735 mmHg 73%
    17:00 +17°C° 0.1 mm 2 mps 735 mmHg 77%
    18:00 +16°C° 0.1 mm 2 mps 736 mmHg 80%
    19:00 +16°C° 0.1 mm 2 mps 736 mmHg 84%
    20:00 +14°C° 0.1 mm 3 mps 736 mmHg 84%
    21:00 +14°C° 0.1 mm 3 mps 736 mmHg 84%
    22:00 +14°C° 0.1 mm 4 mps 737 mmHg 84%
    23:00 +13°C° 0 mm 4 mps 737 mmHg 86%

    26 September, Thursday

    Time Temperature Precipitation Wind Pressure Humidity
    00:00 +12°C° 0 mm 4 mps 737 mmHg 88%
    01:00 +12°C° 0 mm 4 mps 737 mmHg 91%
    02:00 +11°C° 0 mm 4 mps 737 mmHg 91%
    03:00 +11°C° 0 mm 4 mps 737 mmHg 91%
    04:00 +10°C° 0 mm 4 mps 738 mmHg 91%
    05:00 +11°C° 0 mm 4 mps 738 mmHg 89%
    06:00 +11°C° 0 mm 4 mps 738 mmHg 86%
    07:00 +11°C° 0 mm 4 mps 738 mmHg 83%
    08:00 +13°C° 0 mm 5 mps 739 mmHg 77%
    09:00 +14°C° 0 mm 5 mps 739 mmHg 72%
    10:00 +16°C° 0 mm 6 mps 739 mmHg 66%
    11:00 +17°C° 0 mm 6 mps 739 mmHg 61%
    12:00 +17°C° 0 mm 6 mps 739 mmHg 57%
    13:00 +19°C° 0 mm 6 mps 739 mmHg 53%
    14:00 +19°C° 0.1 mm 5 mps 739 mmHg 56%
    15:00 +17°C° 0.1 mm 5 mps 739 mmHg 58%
    16:00 +17°C° 0.1 mm 5 mps 739 mmHg 61%
    17:00 +15°C° 0 mm 5 mps 739 mmHg 69%
    18:00 +14°C° 0 mm 4 mps 740 mmHg 77%
    19:00 +12°C° 0 mm 3 mps 740 mmHg 84%
    20:00 +12°C° 0 mm 3 mps 740 mmHg 84%
    21:00 +12°C° 0 mm 3 mps 740 mmHg 84%
    22:00 +13°C° 0 mm 3 mps 741 mmHg 83%
    23:00 +13°C° 0 mm 3 mps 741 mmHg 84%

    27 September, Friday

    Time Temperature Precipitation Wind Pressure Humidity
    00:00 +14°C° 0 mm 2 mps 741 mmHg 85%
    01:00 +14°C° 0 mm 2 mps 741 mmHg 86%
    02:00 +13°C° 0 mm 2 mps 741 mmHg 86%
    03:00 +13°C° 0 mm 2 mps 741 mmHg 87%
    04:00 +12°C° 0 mm 2 mps 741 mmHg 88%
    05:00 +13°C° 0 mm 2 mps 741 mmHg 86%
    06:00 +13°C° 0 mm 2 mps 741 mmHg 85%
    07:00 +14°C° 0 mm 2 mps 740 mmHg 83%
    08:00 +13°C° 0.1 mm 3 mps 741 mmHg 84%
    09:00 +13°C° 0.1 mm 3 mps 741 mmHg 85%
    10:00 +13°C° 0.1 mm 3 mps 741 mmHg 86%
    11:00 +14°C° 0 mm 3 mps 741 mmHg 83%
    12:00 +16°C° 0 mm 3 mps 741 mmHg 79%
    13:00 +17°C° 0 mm 3 mps 741 mmHg 76%
    14:00 +17°C° 0 mm 2 mps 741 mmHg 76%
    15:00 +17°C° 0 mm 2 mps 741 mmHg 76%
    16:00 +18°C° 0 mm 1 mps 741 mmHg 77%
    17:00 +16°C° 0 mm 1 mps 741 mmHg 80%
    18:00 +15°C° 0 mm 1 mps 741 mmHg 84%
    19:00 +14°C° 0 mm 1 mps 741 mmHg 88%
    20:00 +14°C° 0 mm 1 mps 741 mmHg 88%
    21:00 +13°C° 0 mm 2 mps 741 mmHg 87%
    22:00 +13°C° 0 mm 2 mps 741 mmHg 87%
    23:00 +13°C° 0 mm 2 mps 740 mmHg 88%
    Show more